Pagrindinis puslapis
METAR-TAF:

METAR-TAF

Oro uostai :

North Perry Airport

Hollywood, Florida, Jungtinės Amerikos Valstijos

platuma: 25-59-56N, ilguma: 080-14-28W, Aukštis: 2 m

Dabartinis oras

Ataskaita buvo paskelbta 54 minutes, ne 03:53 UTC
Vėjas 5 kt iš Rytų/Pietryčių
Temperatūra 29°C
Drėgmė 79%
Slėgis 1018 hPa
Matomumas: 16.1 km
Giedras dangus

METAR: KHWO 130353Z AUTO 12005KT 10SM CLR 29/25 A3005 RMK AO2 SLP175 T02940250

Laikas: 00:47 (04:47 UTC)


TAF: trūkstamas

Orai ataskaitas ir orų prognozės (METAR, TAF).

turimą stotys yra geltonos ir raudonos taškus žemėlapyje.

Perkelti pele per norėdami pamatyti stoties vardą.

Tada spustelėkite, norėdami matyti oro stebėjimo ir prognozės.

Norėdami pakeisti žemėlapį: spustelėkite ant žalios mygtukų su juodo kryžiaus žemyn,; žalią mygtuką su brūkšneliu, jei norite nutolinti; arba žalių rodyklių gretimoms žemėlapius.


METAR-TAF: